Theta_e
304 305 305 306 308 309 311 314 319 323 325 325 326 326 324 322 322 321 320 320 320 320 320 319 319 320 320 320 319 318 315 314 311 313 311 308 306 304 301 301 300 300 301
305 305 305 304 304 305 306 309 312 317 322 324 325 325 325 324 323 321 320 320 320 320 320 319 319 320 319 320 319 317 317 317 315 311 309 304 304 300 299 298 296 296 297
304 304 303 302 302 303 304 306 308 312 317 321 323 324 324 324 323 323 322 321 321 321 320 319 319 319 317 318 318 317 317 316 315 312 304 298 294 292 291 290 292 292 293
304 304 303 302 303 304 304 305 306 308 312 317 321 323 323 325 323 322 321 321 321 320 320 320 319 318 317 317 316 315 315 313 311 310 292 292 290 287 287 288 288 286 287
305 304 303 303 303 303 304 305 306 307 310 315 319 321 322 323 321 320 319 319 319 318 318 318 319 314 305 312 315 314 313 309 296 298 289 287 287 286 288 287 287 286 286
304 304 304 302 301 301 302 303 305 307 310 314 317 319 319 320 310 306 314 317 316 315 315 315 314 298 300 301 302 304 310 308 297 298 291 289 288 288 287 287 286 286 288
300 301 301 300 299 299 300 302 303 307 311 313 315 317 318 319 304 303 302 316 315 315 314 311 306 306 301 307 300 300 299 300 302 301 290 292 289 290 288 286 286 286 286
296 297 296 295 295 296 296 297 300 305 308 310 313 315 316 316 303 302 300 314 314 313 312 308 307 300 301 298 295 292 292 292 293 293 294 294 292 290 289 289 287 286 284
292 293 292 290 292 293 293 295 297 300 304 306 310 311 311 314 301 301 302 311 309 308 306 307 306 300 295 297 294 290 288 288 293 293 294 294 293 292 290 288 285 285 284
290 291 291 291 291 291 293 294 296 296 299 300 300 305 304 310 298 300 303 301 293 291 291 293 291 296 296 296 293 290 287 285 287 287 288 289 289 290 289 287 286 285 284
289 289 289 290 289 289 290 291 291 292 288 287 288 287 289 297 299 298 301 298 294 291 291 290 291 294 295 293 292 290 288 287 288 286 285 285 285 285 285 285 285 286 284
288 288 288 288 287 287 287 288 287 286 286 286 286 286 287 289 292 297 296 296 295 291 289 289 290 292 292 292 290 291 290 288 286 285 285 284 284 284 284 284 284 283 283
286 287 287 287 286 286 286 286 286 286 286 286 286 286 286 288 289 291 292 291 291 288 288 290 291 291 291 290 290 289 286 286 286 285 284 283 283 283 282 281 280 279 279
285 286 286 285 286 286 286 286 286 286 286 286 285 285 285 287 287 287 287 287 288 288 288 287 288 288 288 287 286 286 286 286 285 284 282 281 282 282 281 281 281 280 277
285 285 285 284 285 285 285 286 285 286 286 285 285 286 285 285 285 288 287 286 286 286 286 286 285 284 283 283 283 284 284 284 283 283 282 281 281 281 280 280 280 279 277
284 284 283 283 283 283 283 284 288 288 289 289 289 287 286 288 289 289 289 288 288 288 285 284 283 282 282 282 282 282 282 282 282 282 281 281 280 279 279 279 279 277 276
284 284 282 282 282 282 282 283 282 286 289 289 289 289 289 289 289 289 289 289 289 288 284 283 282 282 282 282 282 281 280 280 280 280 280 279 279 278 278 277 277 276 274
284 284 283 282 282 282 282 282 282 282 281 283 287 288 289 289 289 289 288 285 281 282 282 281 280 280 279 279 278 278 277 277 277 276 276 275 273 273 274 273 273 270 269
282 282 282 282 281 280 279 278 278 278 277 277 276 278 282 284 283 283 282 278 276 275 275 274 275 274 274 274 273 272 272 272 272 271 270 268 267 269 267 267 267 266 265
279 280 280 279 278 277 277 276 276 275 274 273 272 272 275 276 273 272 273 273 272 272 271 271 270 270 270 270 270 269 268 268 267 266 265 265 265 265 263 262 261 261 259
277 278 277 277 276 275 274 273 273 272 271 272 273 275 276 271 269 269 269 269 269 269 269 268 267 267 267 267 266 266 265 264 264 263 263 261 262 260 260 261 259 256 256
275 274 274 273 273 272 271 271 271 270 269 269 269 271 272 268 267 266 265 265 265 266 267 266 265 264 264 265 265 264 263 261 260 260 261 260 259 260 259 258 257 256 255
272 272 271 270 270 270 269 268 268 267 266 266 266 266 266 266 265 264 264 264 264 263 264 264 263 262 262 261 262 262 262 260 259 260 259 259 259 257 256 255 254 253 253
271 270 269 269 269 268 268 267 266 266 266 265 265 265 265 264 264 263 263 263 262 262 262 263 263 262 261 259 258 258 258 257 258 258 258 258 257 257 253 252 253 253 253
270 269 269 268 268 267 266 266 265 265 265 265 264 264 264 263 263 263 262 262 262 262 261 261 261 261 260 260 259 258 260 261 257 257 257 256 254 252 250 250 250 250 251
268 268 267 267 266 266 266 265 264 264 264 264 264 263 263 263 263 262 262 262 261 261 261 261 260 260 259 258 258 259 261 261 257 257 253 252 251 249 249 250 249 249 250
Wind_Speed
9 11 11 9 8 9 12 14 16 18 19 20 20 20 21 23 22 22 22 21 22 21 19 20 21 20 13 12 11 11 10 10 11 8 5 5 6 6 4 4 5 6 6
9 11 11 9 9 12 14 15 16 18 19 21 21 22 21 23 23 24 24 22 24 24 24 21 22 15 19 16 12 14 12 13 9 13 6 5 5 3 4 4 3 3 4
11 11 10 8 9 13 14 16 16 17 19 20 21 23 23 21 23 24 25 23 23 23 22 22 22 20 19 15 13 13 12 9 10 8 5 1 2 2 3 2 3 3 3
10 12 13 11 12 12 14 15 16 17 20 21 22 23 23 21 22 23 22 23 22 21 21 20 19 19 20 19 14 15 11 10 9 8 3 3 2 1 2 3 2 2 3
13 12 12 11 9 11 14 15 16 18 19 20 20 21 21 19 16 22 22 21 21 20 20 20 20 19 19 17 12 13 12 10 4 6 4 2 4 3 4 3 2 1 2
14 16 13 9 8 11 14 15 17 18 18 17 19 19 19 14 17 21 22 19 20 19 18 17 15 14 15 18 17 14 14 13 10 8 5 5 5 4 4 3 4 3 2
13 16 14 12 14 14 14 15 16 17 17 16 17 17 19 19 18 22 22 18 18 18 18 14 11 10 13 13 14 15 13 11 10 11 7 6 5 8 7 5 4 3 3
17 16 13 11 14 15 15 16 18 16 16 15 15 17 18 16 19 23 24 21 18 20 19 18 17 14 13 13 11 9 8 6 5 5 6 6 4 7 6 5 5 5 4
15 15 12 8 15 15 16 19 17 15 14 14 13 15 16 17 19 25 24 21 18 17 16 17 16 14 16 21 14 13 9 6 9 13 13 14 13 13 9 7 4 4 2
13 12 14 16 16 16 19 18 14 12 16 9 11 13 16 19 19 26 26 9 9 7 7 7 14 13 20 21 14 14 12 8 9 10 7 12 11 11 9 3 6 4 3
12 15 15 13 13 14 15 14 12 11 6 4 3 2 3 10 15 23 25 14 12 10 10 8 8 19 18 15 19 10 8 12 13 9 8 7 6 6 5 5 5 4 3
15 15 14 12 10 9 10 10 6 4 2 1 1 3 3 4 3 9 12 15 20 14 13 9 11 23 22 20 13 23 23 16 8 8 8 6 6 6 5 6 7 6 5
13 14 12 10 7 6 5 5 4 4 2 0 1 2 2 5 8 18 21 22 16 14 11 20 20 23 26 23 23 22 15 8 8 8 8 6 4 5 7 6 6 6 5
13 12 8 6 6 6 4 3 3 3 3 3 3 4 2 3 8 7 12 14 24 18 21 15 17 16 17 16 12 11 8 6 8 8 7 6 6 4 6 3 5 4 3
11 8 6 3 4 5 5 4 2 3 4 2 3 4 4 3 6 10 14 11 12 15 16 11 10 9 10 9 9 8 8 8 8 7 7 7 6 6 6 4 3 3 3
11 6 3 2 2 3 2 6 16 13 14 12 13 8 9 16 17 19 23 25 27 23 11 11 10 9 10 9 8 8 7 8 6 6 6 6 6 6 5 4 3 3 3
11 5 3 1 1 1 1 4 8 12 19 15 16 17 18 18 21 23 23 22 19 15 11 9 10 9 9 8 8 7 8 6 6 6 6 6 6 5 5 4 3 3 2
11 8 4 3 2 1 2 2 2 7 8 9 13 12 20 21 21 21 21 17 10 12 9 9 9 9 8 8 8 7 7 7 7 7 7 6 5 4 3 3 3 3 3
9 4 3 3 3 3 4 5 5 6 8 8 6 12 15 25 25 24 20 10 9 8 8 9 8 7 7 7 7 6 7 6 6 6 6 5 4 3 3 3 4 5 4
5 5 3 3 5 3 4 6 5 5 6 5 5 3 2 7 9 9 9 9 9 8 7 8 7 6 6 6 6 7 7 6 6 6 5 5 4 3 3 4 4 3 2
2 1 4 4 5 6 5 6 6 6 7 7 6 7 15 10 8 8 9 9 7 6 6 7 6 6 5 6 6 6 7 6 5 5 5 4 3 3 3 4 4 3 3
1 2 3 5 5 8 7 7 8 7 7 7 7 10 19 9 8 8 8 7 6 6 5 6 6 5 4 4 5 6 6 6 5 4 5 3 3 4 4 3 3 2 3
3 4 5 5 7 10 10 8 8 8 8 8 8 7 7 7 7 6 7 6 5 6 6 6 6 5 5 5 5 4 6 5 4 4 5 4 4 4 3 3 3 3 2
4 5 6 6 6 8 9 9 10 11 9 7 6 6 5 6 6 7 6 6 6 6 5 5 5 6 5 4 3 3 4 3 3 4 6 5 4 4 3 3 3 2 2
6 6 7 7 8 8 8 8 8 8 8 6 6 6 5 6 6 5 5 5 5 5 4 4 4 5 5 6 5 5 4 7 5 5 4 5 6 6 4 3 2 2 2
6 6 6 6 7 7 7 7 7 7 7 6 5 5 5 5 5 4 4 4 4 4 4 2 3 4 5 4 4 5 6 6 5 6 4 4 4 3 3 3 4 3 3
Wind_Direction
251 254 253 245 246 253 251 248 244 242 237 237 234 227 219 218 216 217 217 214 214 210 206 208 208 206 206 201 203 206 207 211 221 231 199 183 171 181 179 191 176 198 219
263 256 243 243 248 258 259 257 252 248 241 237 236 234 225 217 216 216 216 213 215 215 211 208 210 206 208 204 202 205 211 213 215 228 195 193 180 179 169 179 192 224 228
279 270 255 244 252 257 258 260 259 255 247 240 235 235 233 220 216 216 215 216 217 219 217 213 209 202 205 200 200 202 209 210 207 215 214 120 122 140 125 136 176 217 223
276 276 270 263 256 258 264 265 265 261 255 243 235 234 234 230 215 213 217 212 218 219 216 218 214 210 206 199 198 200 199 201 210 211 149 168 136 150 105 158 241 195 227
291 280 270 261 245 253 258 261 263 261 257 250 242 236 234 227 213 210 208 215 214 220 220 204 206 206 211 199 196 197 195 197 155 191 140 144 164 160 192 158 145 131 249
297 292 288 277 268 265 268 268 266 261 254 248 239 235 232 226 211 203 202 206 213 212 213 212 199 181 187 190 188 184 185 190 188 197 170 180 183 168 144 151 139 142 241
301 295 291 292 288 282 276 272 267 264 259 244 238 231 227 223 200 196 198 203 206 210 201 196 183 184 174 193 191 182 176 170 175 189 163 193 153 172 138 155 157 151 166
295 291 289 285 281 288 287 279 273 266 254 248 239 229 227 223 197 197 197 208 206 205 193 183 181 178 174 166 148 133 123 114 151 155 151 164 132 142 138 155 153 115 85
289 288 292 293 293 289 283 281 278 274 258 249 240 232 225 230 201 198 197 207 206 201 182 181 183 172 160 160 149 132 118 101 87 103 106 110 115 122 129 124 113 121 121
294 293 297 294 285 285 285 282 274 263 266 245 242 235 226 228 204 202 199 179 155 140 91 149 146 153 157 150 138 141 133 136 133 107 95 84 88 105 106 103 136 122 120
297 298 293 285 281 280 282 280 273 263 251 254 235 259 273 238 213 199 186 176 161 140 132 126 123 128 134 132 122 145 138 134 123 113 109 101 100 107 91 80 79 105 115
303 299 293 294 288 286 283 288 271 240 203 182 113 9 16 36 98 161 160 156 145 132 127 122 118 122 109 111 111 111 125 118 123 120 113 112 120 109 100 88 77 74 52
301 298 297 299 301 296 306 312 310 320 294 210 103 67 29 85 78 91 91 90 101 106 108 107 117 111 108 96 111 114 109 123 126 115 113 110 99 107 108 89 82 88 88
298 299 298 304 324 334 330 334 345 10 347 336 97 89 81 106 110 99 95 97 89 90 104 100 95 98 97 104 104 94 104 108 109 113 108 116 111 114 95 81 98 96 94
293 293 296 327 352 335 356 347 349 18 84 63 346 91 103 90 60 123 122 110 110 118 108 105 117 111 103 98 89 89 90 95 98 112 125 116 112 107 100 93 85 99 89
289 281 280 333 327 322 343 60 43 64 71 81 86 94 81 93 99 101 104 114 120 122 108 110 102 102 99 104 108 102 95 97 107 115 108 105 108 107 113 106 98 110 113
282 266 251 159 238 259 329 96 98 57 58 60 86 93 93 106 106 106 107 107 104 101 96 97 100 105 111 113 108 101 104 107 106 97 102 100 105 109 113 114 129 122 113
276 245 221 170 160 193 122 97 65 100 98 73 56 89 96 97 98 96 95 83 69 67 79 92 96 95 96 100 104 108 97 89 91 95 90 81 71 86 99 97 81 103 95
276 244 214 136 116 109 100 88 84 101 107 103 91 61 72 86 81 73 71 75 83 79 80 78 77 82 85 88 87 88 95 94 92 92 81 85 72 100 99 89 87 75 85
254 229 171 139 113 110 107 105 99 92 89 84 77 41 27 71 65 65 67 74 71 67 73 81 78 82 89 97 100 97 90 83 84 89 89 87 86 86 100 94 82 91 86
239 197 143 114 111 101 85 88 88 85 87 78 67 75 88 87 82 71 69 64 73 77 82 86 86 85 82 86 88 93 95 98 98 96 99 95 112 111 85 82 87 98 91
160 116 111 115 115 107 100 91 88 83 72 73 70 66 74 73 78 80 76 74 71 71 71 84 79 68 64 84 103 108 113 107 102 113 111 121 107 94 94 100 88 75 74
132 123 111 103 108 106 96 89 88 86 81 66 55 60 61 71 79 86 91 87 80 72 64 79 90 82 62 55 49 74 109 120 138 135 130 124 111 102 96 102 105 80 81
103 109 112 108 105 106 104 103 103 94 92 89 89 83 82 79 81 82 83 82 79 72 66 71 81 97 94 88 75 74 93 106 114 122 121 121 123 117 107 98 107 127 126
104 107 106 107 105 102 102 102 98 99 97 95 90 86 84 83 84 82 81 82 87 90 87 88 87 110 120 129 127 124 142 127 138 134 127 126 128 126 120 124 135 131 155
74 84 89 94 96 99 101 102 100 91 91 88 86 84 84 86 85 88 92 93 94 94 105 111 134 145 150 156 167 175 180 168 163 162 147 135 132 134 129 158 175 178 193